GW5388 Weather Reports


time (UTC)temp
C
wind
direction
speed
KPH
gust
KPH
rain 1hr
cm
rain 24hr
cm
rain mn
cm
humidity
%
barometer
mb
20260504151010 16 0.0 0.0 0.00 0.00 0.00 36 1010.8
20260504150510 16 0.0 0.0 0.00 0.00 0.00 40 1010.9
20260504141012 15 0.0 0.0 0.00 0.00 0.00 38 1011.2
20260504140509 15 0.0 0.0 0.00 0.00 0.00 44 1011.2
20260504130512 12 0.0 0.0 0.00 0.00 0.00 47 1011.7
20260504110503 7 0.0 0.0 0.00 0.00 0.00 58 1012.1
20260504100503 5 0.0 0.0 0.00 0.00 0.00 65 1011.6
20260504082003 2 0.0 0.0 0.00 0.00 0.00 75 1011.2
20260504081514 2 0.0 0.0 0.00 0.00 0.00 76 1011.1
20260504081003 2 0.0 0.0 0.00 0.00 0.00 77 1011.2
20260504080503 2 0.0 0.0 0.00 0.00 0.00 77 1011.2
20260504050509 3 0.0 0.0 0.00 0.00 0.00 72 1011.2
20260504050012 3 0.0 0.0 0.00 0.00 0.00 72 1011.3
20260504045504 2 0.0 0.0 0.00 0.00 0.00 72 1011.4
20260504045003 2 0.0 0.0 0.00 0.00 0.00 72 1011.4
20260504044516 2 0.0 0.0 0.00 0.00 0.00 73 1011.4
20260504044008 2 0.0 0.0 0.00 0.00 0.00 73 1011.4
20260504043508 2 0.0 0.0 0.00 0.00 0.00 72 1011.5
20260504043020 2 0.0 0.0 0.00 0.00 0.00 72 1011.4
20260504042506 2 0.0 0.0 0.00 0.00 0.00 72 1011.4
20260504042008 2 0.0 0.0 0.00 0.00 0.00 72 1011.4
20260504041519 2 0.0 0.0 0.00 0.00 0.00 71 1011.4
20260504041008 2 0.0 0.0 0.00 0.00 0.00 71 1011.3
20260504040506 2 0.0 0.0 0.00 0.00 0.00 70 1011.3
20260504040019 2 0.0 0.0 0.00 0.00 0.00 70 1011.2
20260504035505 2 0.0 0.0 0.00 0.00 0.00 69 1011.2
20260504035007 3 0.0 0.0 0.00 0.00 0.00 69 1011.2
20260504034518 3 0.0 0.0 0.00 0.00 0.00 68 1011.2
20260504034003 3 0.0 0.0 0.00 0.00 0.00 68 1011.2
20260504033503 3 0.0 0.0 0.00 0.00 0.00 67 1011.1
20260504033023 3 0.0 0.0 0.00 0.00 0.00 67 1011.1
20260504032507 3 0.0 0.0 0.00 0.00 0.00 67 1011.1
20260504032007 3 0.0 0.0 0.00 0.00 0.00 66 1011.1
20260504031520 3 0.0 0.0 0.00 0.00 0.00 65 1011.1
20260504031007 3 0.0 0.0 0.00 0.00 0.00 65 1011.1
20260504030506 3 0.0 0.0 0.00 0.00 0.00 65 1011.0
20260504030034 3 0.0 0.0 0.00 0.00 0.00 64 1011.0
20260504025508 3 0.0 0.0 0.00 0.00 0.00 64 1010.9
20260504025007 4 0.0 0.0 0.00 0.00 0.00 64 1010.8
20260504024523 4 0.0 0.0 0.00 0.00 0.00 63 1011.0
20260504024008 4 0.0 0.0 0.00 0.00 0.00 63 1010.9
20260504023507 4 0.0 0.0 0.00 0.00 0.00 63 1011.0
20260504023015 4 0.0 0.0 0.00 0.00 0.00 63 1011.0
20260504022503 4 0.0 0.0 0.00 0.00 0.00 62 1010.9
20260504022006 5 0.0 0.0 0.00 0.00 0.00 61 1010.9
20260504021520 5 0.0 0.0 0.00 0.00 0.00 60 1010.9
20260504021006 5 0.0 0.0 0.00 0.00 0.00 60 1010.9
20260504020506 5 0.0 0.0 0.00 0.00 0.00 58 1010.9
20260504020025 5 0.0 0.0 0.00 0.00 0.00 58 1010.9
20260504015508 5 0.0 0.0 0.00 0.00 0.00 56 1010.9
20260504015012 5 0.0 0.0 0.00 0.00 0.00 56 1010.9
20260504014525 6 0.0 0.0 0.00 0.00 0.00 54 1010.9
20260504014009 6 0.0 0.0 0.00 0.00 0.00 53 1010.8
20260504013507 6 0.0 0.0 0.00 0.00 0.00 50 1010.8
20260504013026 6 0.0 0.0 0.00 0.00 0.00 49 1010.7
20260504012507 6 0.0 0.0 0.00 0.00 0.00 48 1010.6
20260504012006 7 0.0 0.0 0.00 0.00 0.00 47 1010.5
20260504011522 7 0.0 0.0 0.00 0.00 0.00 44 1010.4
20260504011007 8 0.0 0.0 0.00 0.00 0.00 39 1010.4
20260504010512 8 0.0 0.0 0.00 0.00 0.00 39 1010.3
20260504010022 8 0.0 0.0 0.00 0.00 0.00 38 1010.2
20260504005508 8 0.0 0.0 0.00 0.00 0.00 40 1010.2
20260504005009 8 0.0 0.0 0.00 0.00 0.00 40 1010.2
20260504004524 9 0.0 0.0 0.00 0.00 0.00 38 1010.1
20260504004008 8 0.0 0.0 0.00 0.00 0.00 38 1010.0
20260504003508 8 0.0 0.0 0.00 0.00 0.00 38 1010.0
20260504003023 8 0.0 0.0 0.00 0.00 0.00 40 1010.0
20260504002508 8 0.0 0.0 0.00 0.00 0.00 40 1009.8
20260504002008 8 0.0 0.0 0.00 0.00 0.00 39 1009.7
20260504001524 8 0.0 0.0 0.00 0.00 0.00 39 1009.7
20260504001007 9 0.0 0.0 0.00 0.00 0.00 36 1009.6
20260504000510 9 0.0 0.0 0.00 0.00 0.00 34 1009.5
20260504000020 9 0.0 0.0 0.00 0.00 0.00 34 1009.4
20260503235504 10 0.0 0.0 0.00 0.00 0.00 34 1009.4
20260503235007 10 0.0 0.0 0.00 0.00 0.00 35 1009.4
20260503234527 9 0.0 0.0 0.00 0.00 0.00 33 1009.3
20260503234008 9 0.0 0.0 0.00 0.00 0.00 35 1009.2
20260503233507 10 0.0 0.0 0.00 0.00 0.00 34 1009.1
20260503233025 10 0.0 0.0 0.00 0.00 0.00 32 1009.1
20260503232509 10 0.0 0.0 0.00 0.00 0.00 33 1009.0
20260503232009 10 0.0 0.0 0.00 0.00 0.00 32 1009.0
20260503231531 10 0.0 0.0 0.00 0.00 0.00 30 1008.9
20260503231008 10 0.0 0.0 0.00 0.00 0.00 31 1009.0
20260503230509 11 0.0 0.0 0.00 0.00 0.00 30 1008.9
20260503230025 11 0.0 0.0 0.00 0.00 0.00 30 1008.9
20260503225505 11 0.0 0.0 0.00 0.00 0.00 30 1008.8
20260503225009 11 0.0 0.0 0.00 0.00 0.00 30 1008.8
20260503224523 11 0.0 0.0 0.00 0.00 0.00 31 1008.7
20260503224007 11 0.0 0.0 0.00 0.00 0.00 31 1008.7
20260503223506 11 0.0 0.0 0.00 0.00 0.00 31 1008.7
20260503223027 11 0.0 0.0 0.00 0.00 0.00 32 1008.8
20260503222505 11 0.0 0.0 0.00 0.00 0.00 33 1008.9
20260503222009 11 0.0 0.0 0.00 0.00 0.00 32 1008.7
20260503221525 11 0.0 0.0 0.00 0.00 0.00 33 1008.8
20260503221010 11 0.0 0.0 0.00 0.00 0.00 33 1008.8
20260503220509 11 0.0 0.0 0.00 0.00 0.00 32 1008.9
20260503220034 11 0.0 0.0 0.00 0.00 0.00 33 1008.8
20260503215508 11 0.0 0.0 0.00 0.00 0.00 35 1008.9
20260503215011 11 0.0 0.0 0.00 0.00 0.00 35 1008.9
20260503214527 10 0.0 0.0 0.00 0.00 0.00 34 1009.0
20260503214006 10 0.0 0.0 0.00 0.00 0.00 36 1009.0
20260503213511 11 0.0 0.0 0.00 0.00 0.00 35 1008.9
20260503213037 11 0.0 0.0 0.00 0.00 0.00 34 1008.9
20260503212510 11 0.0 0.0 0.00 0.00 0.00 33 1008.8
20260503212012 11 0.0 0.0 0.00 0.00 0.00 33 1008.7
20260503211529 11 0.0 0.0 0.00 0.00 0.00 35 1008.8
20260503211014 11 0.0 0.0 0.00 0.00 0.00 40 1008.8
20260503210508 11 0.0 0.0 0.00 0.00 0.00 38 1008.9
20260503210024 11 0.0 0.0 0.00 0.00 0.00 35 1008.8
20260503205513 11 0.0 0.0 0.00 0.00 0.00 37 1008.8
20260503205009 11 0.0 0.0 0.00 0.00 0.00 39 1008.9
20260503204536 10 0.0 0.0 0.00 0.00 0.00 38 1008.7
20260503204011 10 0.0 0.0 0.00 0.00 0.00 37 1008.7
20260503203507 11 0.0 0.0 0.00 0.00 0.00 36 1008.9
20260503203024 11 0.0 0.0 0.00 0.00 0.00 39 1008.8
20260503202508 11 0.0 0.0 0.00 0.00 0.00 37 1008.8
20260503202004 10 0.0 0.0 0.00 0.00 0.00 36 1008.8
20260503201511 11 0.0 0.0 0.00 0.00 0.00 35 1008.9
20260503201003 11 0.0 0.0 0.00 0.00 0.00 37 1008.8
20260503200502 11 0.0 0.0 0.00 0.00 0.00 40 1008.9
20260503200011 10 0.0 0.0 0.00 0.00 0.00 36 1009.0
20260503195504 10 0.0 0.0 0.00 0.00 0.00 38 1009.0
20260503195007 10 0.0 0.0 0.00 0.00 0.00 40 1008.9
20260503194522 10 0.0 0.0 0.00 0.00 0.00 37 1009.0
20260503194006 10 0.0 0.0 0.00 0.00 0.00 40 1008.8
20260503193508 10 0.0 0.0 0.00 0.00 0.00 39 1009.0
20260503193006 10 0.0 0.0 0.00 0.00 0.00 38 1008.8
20260503192502 10 0.0 0.0 0.00 0.00 0.00 37 1009.0
20260503192002 11 0.0 0.0 0.00 0.00 0.00 38 1008.9
20260503191507 10 0.0 0.0 0.00 0.00 0.00 39 1008.9
20260503191006 9 0.0 0.0 0.00 0.00 0.00 41 1009.0
20260503190504 8 0.0 0.0 0.00 0.00 0.00 40 1009.0
20260503190009 8 0.0 0.0 0.00 0.00 0.00 42 1009.0
20260503185509 8 0.0 0.0 0.00 0.00 0.00 40 1009.0
20260503185005 8 0.0 0.0 0.00 0.00 0.00 40 1009.0
20260503184517 8 0.0 0.0 0.00 0.00 0.00 38 1009.0
20260503184006 10 0.0 0.0 0.00 0.00 0.00 37 1009.2
20260503183508 10 0.0 0.0 0.00 0.00 0.00 38 1009.0
20260503183026 9 0.0 0.0 0.00 0.00 0.00 37 1009.0
20260503182512 10 0.0 0.0 0.00 0.00 0.00 37 1009.2
20260503182004 10 0.0 0.0 0.00 0.00 0.00 40 1009.0
20260503181506 10 0.0 0.0 0.00 0.00 0.00 40 1009.0
20260503181003 10 0.0 0.0 0.00 0.00 0.00 38 1009.0
20260503180503 10 0.0 0.0 0.00 0.00 0.00 38 1008.9
20260503180021 10 0.0 0.0 0.00 0.00 0.00 38 1008.9
20260503175505 9 0.0 0.0 0.00 0.00 0.00 38 1008.9
20260503175002 9 0.0 0.0 0.00 0.00 0.00 37 1008.8
20260503174519 10 0.0 0.0 0.00 0.00 0.00 38 1008.8
20260503174005 10 0.0 0.0 0.00 0.00 0.00 37 1008.9
20260503173507 9 0.0 0.0 0.00 0.00 0.00 40 1008.8
20260503173018 9 0.0 0.0 0.00 0.00 0.00 39 1008.7
20260503172505 9 0.0 0.0 0.00 0.00 0.00 38 1008.7
20260503172010 9 0.0 0.0 0.00 0.00 0.00 38 1008.7
20260503171528 10 0.0 0.0 0.00 0.00 0.00 41 1008.7
20260503171003 10 0.0 0.0 0.00 0.00 0.00 42 1008.7
20260503170505 9 0.0 0.0 0.00 0.00 0.00 40 1008.8